EW7117 Weather Reports


time (UTC)temp
F
wind
direction
speed
knots
gust
knots
rain 1hr
in
rain 24hr
in
rain mn
in
humidity
%
barometer
mb
20260510021539 56 174 7.8 15.6 0.00 0.00 0.00 79 1003.0
20260510020038 56 184 7.8 14.8 0.00 0.00 0.00 78 1002.9
20260510014539 56 173 4.3 14.8 0.00 0.00 0.00 78 1002.5
20260510013040 56 162 2.6 11.3 0.00 0.00 0.00 77 1003.0
20260510011534 57 165 4.3 13.9 0.00 0.00 0.00 76 1003.1
20260510010032 57 163 7.0 14.8 0.00 0.00 0.00 75 1003.0
20260510004532 58 154 6.1 10.4 0.00 0.00 0.00 74 1002.9
20260510003044 58 157 2.6 9.6 0.00 0.00 0.00 72 1002.8
20260510001530 58 167 0.0 8.7 0.00 0.00 0.00 71 1002.8
20260510000029 59 154 3.5 8.7 0.00 0.00 0.00 71 1003.0
20260509234529 59 163 0.0 4.3 0.00 0.00 0.00 70 1003.3
20260509233030 59 180 0.0 7.8 0.00 0.00 0.00 69 1003.4
20260509231515 59 185 3.5 10.4 0.00 0.00 0.00 68 1003.5
20260509230015 59 165 4.3 11.3 0.00 0.00 0.00 68 1003.5
20260509224516 60 173 0.0 13.9 0.00 0.00 0.00 69 1003.5
20260509223005 60 188 5.2 14.8 0.00 0.00 0.00 67 1003.4
20260509221504 59 167 2.6 13.0 0.00 0.00 0.00 68 1003.4
20260509220005 59 190 7.8 13.9 0.00 0.00 0.00 67 1003.4
20260509214501 60 194 8.7 15.6 0.00 0.00 0.00 65 1003.7
20260509213101 60 190 13.9 19.1 0.00 0.00 0.00 64 1003.7
20260509211603 60 177 10.4 19.1 0.00 0.00 0.00 64 1003.6
20260509210110 61 200 0.0 16.5 0.00 0.00 0.00 62 1003.6
20260509204558 61 192 7.0 17.4 0.00 0.00 0.00 60 1003.9
20260509203058 62 176 13.0 22.6 0.00 0.00 0.00 60 1003.6
20260509201600 62 145 9.6 20.9 0.00 0.00 0.00 55 1003.5
20260509194551 64 227 1.7 14.8 0.00 0.00 0.00 48 1003.8
20260509193054 63 210 0.0 13.9 0.00 0.00 0.00 47 1003.8
20260509191544 62 194 6.1 18.2 0.00 0.00 0.00 52 1004.2
20260509190127 62 193 7.0 15.6 0.00 0.00 0.00 51 1004.6
20260509184537 62 193 4.3 11.3 0.00 0.00 0.00 51 1004.7
20260509183032 63 209 0.9 15.6 0.00 0.00 0.00 49 1004.8
20260509181522 62 173 2.6 15.6 0.00 0.00 0.00 48 1004.7
20260509180021 62 184 7.0 13.9 0.00 0.00 0.00 47 1004.9
20260509174518 61 187 2.6 10.4 0.00 0.00 0.00 51 1005.1
20260509173024 61 153 6.1 12.2 0.00 0.00 0.00 47 1005.3
20260509171521 62 192 7.8 15.6 0.00 0.00 0.00 46 1005.5
20260509170105 62 193 0.9 11.3 0.00 0.00 0.00 44 1005.7
20260509164557 61 197 4.3 14.8 0.00 0.00 0.00 44 1005.8
20260509163104 61 178 6.1 13.0 0.00 0.00 0.00 42 1006.1
20260509161556 61 152 1.7 11.3 0.00 0.00 0.00 43 1006.5
20260509160049 60 169 0.0 0.0 0.00 0.00 0.00 44 1006.9
20260509154545 59 194 3.5 12.2 0.00 0.00 0.00 45 1007.1
20260509153044 59 190 3.5 13.9 0.00 0.00 0.00 43 1007.3
20260509151541 58 191 5.2 12.2 0.00 0.00 0.00 46 1007.5
20260509150036 58 183 5.2 12.2 0.00 0.00 0.00 47 1007.7
20260509144533 57 175 4.3 14.8 0.00 0.00 0.00 48 1007.8
20260509143008 56 159 7.8 13.9 0.00 0.00 0.00 48 1007.9
20260509141510 56 169 5.2 13.9 0.00 0.00 0.00 50 1008.1
20260509140002 55 193 10.4 14.8 0.00 0.00 0.00 47 1008.3
20260509134501 55 193 12.2 19.1 0.00 0.00 0.00 48 1008.5
20260509133106 55 157 10.4 18.2 0.00 0.00 0.00 47 1008.6
20260509131557 55 173 5.2 9.6 0.00 0.00 0.00 47 1008.6
20260509130056 54 178 6.1 13.0 0.00 0.00 0.00 52 1008.6
20260509124555 52 157 3.5 8.7 0.00 0.00 0.00 52 1008.5
20260509123044 51 186 7.0 12.2 0.00 0.00 0.00 51 1008.8
20260509121554 50 178 3.5 13.9 0.00 0.00 0.00 54 1008.8
20260509120042 50 181 5.2 8.7 0.00 0.00 0.00 55 1009.0
20260509114551 48 190 3.5 9.6 0.00 0.00 0.00 57 1009.1
20260509113032 47 185 3.5 7.0 0.00 0.00 0.00 61 1009.0
20260509111527 46 189 2.6 6.1 0.00 0.00 0.00 62 1009.0
20260509110023 45 187 1.7 7.8 0.00 0.00 0.00 64 1008.9
20260509104542 44 197 1.7 7.0 0.00 0.00 0.00 66 1008.8
20260509103038 44 190 0.0 5.2 0.00 0.00 0.00 67 1008.6
20260509101536 43 193 0.0 7.0 0.00 0.00 0.00 68 1008.6
20260509100029 42 194 0.9 6.1 0.00 0.00 0.00 67 1008.6
20260509094531 42 188 0.9 7.8 0.00 0.00 0.00 68 1008.7
20260509093026 42 234 0.0 1.7 0.00 0.00 0.00 67 1008.7
20260509091525 42 183 0.0 7.0 0.00 0.00 0.00 67 1008.8
20260509090049 42 186 0.0 3.5 0.00 0.00 0.00 68 1008.8
20260509084527 41 186 0.0 6.1 0.00 0.00 0.00 67 1008.8
20260509083041 41 184 0.0 6.1 0.00 0.00 0.00 66 1008.9
20260509081527 41 187 0.0 7.0 0.00 0.00 0.00 67 1009.0
20260509080018 41 184 0.9 6.1 0.00 0.00 0.00 66 1009.2
20260509074527 41 206 0.0 4.3 0.00 0.00 0.00 67 1009.2
20260509073018 41 188 0.0 0.0 0.00 0.00 0.00 68 1009.2
20260509071513 41 187 0.0 0.0 0.00 0.00 0.00 67 1009.2
20260509070109 41 186 0.0 4.3 0.00 0.00 0.00 66 1009.2
20260509064556 41 183 0.0 0.0 0.00 0.00 0.00 66 1009.2
20260509063114 42 184 0.0 0.0 0.00 0.00 0.00 65 1009.4
20260509061556 42 183 0.0 0.0 0.00 0.00 0.00 65 1009.6
20260509060053 43 184 0.0 5.2 0.00 0.00 0.00 67 1009.8
20260509054548 43 183 0.0 5.2 0.00 0.00 0.00 65 1009.9
20260509053047 43 175 0.9 5.2 0.00 0.00 0.00 65 1009.9
20260509051545 44 178 0.0 5.2 0.00 0.00 0.00 65 1009.9
20260509050051 44 193 0.0 6.1 0.00 0.00 0.00 63 1009.9
20260509044538 44 184 3.5 7.0 0.00 0.00 0.00 63 1010.0
20260509043043 45 190 0.9 6.1 0.00 0.00 0.00 62 1010.0
20260509041525 45 192 0.0 5.2 0.00 0.00 0.00 63 1010.0
20260509040022 45 189 0.0 0.0 0.00 0.00 0.00 66 1009.9
20260509034522 45 189 1.7 7.0 0.00 0.00 0.00 65 1009.9
20260509033018 46 188 0.0 0.0 0.00 0.00 0.00 66 1009.9
20260509031511 46 185 1.7 6.1 0.00 0.00 0.00 64 1010.0
20260509030018 46 192 0.9 6.1 0.00 0.00 0.00 62 1010.1
20260509024510 46 215 0.0 7.0 0.00 0.00 0.00 64 1010.2
20260509023010 45 231 0.0 0.0 0.00 0.00 0.00 62 1010.1